Total_Precipitation_Accumulation
0.12 0.19 0.23 0.28 0.24 0.17 0.14 0.15 0.24 0.32 0.47 0.59 0.58 0.68 0.95 0.82 0.71 0.64 0.62 0.53 0.50 0.57 0.68 0.75 0.78 0.76 0.85 1.01 1.15 1.28 1.39 1.53 1.77 2.02 1.86 1.61 1.55 1.52 1.49 1.58 1.72 2.00 2.14 2.21
0.12 0.16 0.20 0.24 0.26 0.19 0.16 0.16 0.15 0.26 0.45 0.55 0.63 0.66 0.76 0.76 0.78 0.77 0.71 0.68 0.66 0.78 0.81 0.83 0.87 0.83 0.82 0.84 0.95 1.14 1.29 1.42 1.60 1.72 1.56 1.38 1.27 1.30 1.33 1.44 1.62 1.80 1.94 2.06
0.21 0.19 0.22 0.28 0.26 0.23 0.20 0.26 0.26 0.34 0.46 0.52 0.71 0.66 0.67 0.80 0.86 0.82 0.68 0.73 0.74 0.78 0.89 0.84 0.82 0.83 0.82 0.84 1.00 1.21 1.26 1.31 1.44 1.56 1.55 1.44 1.27 1.26 1.32 1.40 1.56 1.67 1.70 1.78
0.35 0.39 0.45 0.36 0.33 0.29 0.28 0.33 0.33 0.36 0.43 0.53 0.71 0.69 0.55 0.56 0.63 0.73 0.77 0.85 0.82 0.80 0.84 0.79 0.75 0.82 0.82 0.82 1.02 1.21 1.26 1.35 1.53 1.69 1.70 1.63 1.55 1.47 1.52 1.58 1.59 1.58 1.63 1.68
0.56 0.57 0.48 0.47 0.47 0.48 0.50 0.61 0.54 0.48 0.48 0.53 0.55 0.63 0.70 0.60 0.54 0.62 0.69 0.88 0.91 0.85 0.91 0.94 0.97 0.99 0.99 0.98 1.15 1.37 1.47 1.51 1.58 1.74 1.80 1.82 1.87 1.90 1.93 1.92 1.79 1.72 1.76 1.82
0.65 0.74 0.73 0.71 0.60 0.54 0.65 1.02 0.92 0.74 0.62 0.60 0.61 0.91 1.06 0.88 0.72 0.69 0.68 0.82 0.99 0.98 0.87 0.92 0.98 1.04 1.18 1.24 1.31 1.40 1.55 1.69 1.74 1.90 2.01 1.99 2.08 2.18 2.24 2.27 2.19 2.17 2.09 1.98
0.75 0.84 0.88 0.81 0.61 0.62 1.12 1.45 1.11 0.93 0.84 0.78 0.86 0.89 0.97 0.87 0.77 0.77 0.71 0.76 0.89 1.08 0.94 0.91 1.01 1.16 1.35 1.40 1.52 1.56 1.64 1.74 1.83 2.04 2.21 2.35 2.49 2.59 2.56 2.53 2.55 2.50 2.28 2.13
0.94 1.14 1.20 0.80 0.77 1.04 1.28 1.13 1.12 1.13 1.18 1.16 1.02 0.82 0.81 0.85 0.76 0.74 0.72 0.73 0.73 0.80 0.87 0.90 1.01 1.28 1.45 1.45 1.47 1.61 1.73 1.86 2.04 2.17 2.23 2.32 2.62 2.70 2.68 2.64 2.54 2.39 2.25 2.04
1.14 1.29 1.09 0.86 0.95 0.98 1.09 1.18 1.22 1.22 1.25 1.17 1.01 0.89 0.88 0.88 0.77 0.71 0.67 0.70 0.74 0.76 0.86 0.98 1.12 1.35 1.61 1.64 1.59 1.59 1.73 1.93 2.12 2.25 2.42 2.58 2.69 2.64 2.57 2.54 2.45 2.31 2.18 1.99
1.29 1.28 1.04 1.00 1.03 1.00 1.05 1.10 1.20 1.14 1.08 1.07 1.03 0.91 0.88 0.83 0.70 0.65 0.67 0.69 0.74 0.79 0.88 1.03 1.21 1.37 1.61 1.54 1.49 1.55 1.58 1.73 1.89 1.96 2.03 2.18 2.36 2.31 2.20 2.18 2.23 2.20 2.14 2.04
1.44 1.44 1.33 1.27 1.28 1.17 1.03 0.97 0.93 0.94 0.94 0.99 1.03 0.98 0.82 0.76 0.70 0.61 0.62 0.64 0.69 0.84 1.03 1.13 1.25 1.34 1.37 1.36 1.39 1.41 1.40 1.47 1.55 1.60 1.69 1.81 1.91 1.99 1.95 1.93 1.89 1.89 1.87 1.85
1.67 1.51 1.44 1.58 1.46 1.33 1.12 1.00 0.92 0.87 0.87 0.91 0.95 0.99 0.83 0.74 0.71 0.63 0.57 0.60 0.71 0.83 0.98 1.13 1.34 1.50 1.52 1.45 1.48 1.50 1.44 1.41 1.40 1.45 1.51 1.55 1.63 1.64 1.62 1.50 1.39 1.29 1.23 1.23
1.38 1.32 1.32 1.36 1.30 1.20 1.13 1.13 1.15 1.08 0.98 0.91 0.91 0.88 0.80 0.74 0.71 0.65 0.64 0.68 0.75 0.77 0.84 0.98 1.15 1.31 1.45 1.59 1.64 1.64 1.55 1.46 1.40 1.34 1.34 1.39 1.44 1.50 1.50 1.34 1.15 1.00 0.91 0.87
1.34 1.28 1.35 1.31 1.24 1.13 1.09 1.14 1.20 1.10 1.05 0.99 0.98 0.89 0.80 0.75 0.73 0.73 0.69 0.73 0.78 0.78 0.79 0.90 1.02 1.10 1.21 1.45 1.64 1.68 1.62 1.53 1.42 1.32 1.27 1.28 1.31 1.32 1.38 1.44 1.34 1.16 0.95 0.80
1.59 1.45 1.37 1.36 1.34 1.24 1.08 1.07 1.10 1.02 0.94 0.94 0.94 0.92 0.84 0.78 0.72 0.72 0.69 0.68 0.75 0.80 0.82 0.90 1.00 1.07 1.20 1.34 1.43 1.47 1.45 1.38 1.29 1.24 1.24 1.23 1.25 1.24 1.22 1.28 1.29 1.24 1.09 0.92
1.59 1.45 1.27 1.25 1.30 1.30 1.19 1.09 1.05 1.00 0.92 0.85 0.84 0.79 0.75 0.68 0.65 0.66 0.66 0.66 0.76 0.81 0.84 0.96 1.05 1.07 1.21 1.38 1.42 1.42 1.40 1.34 1.23 1.19 1.23 1.24 1.21 1.21 1.19 1.25 1.26 1.26 1.15 0.97
1.49 1.46 1.29 1.10 1.09 1.14 1.10 1.00 0.90 0.87 0.85 0.80 0.77 0.75 0.68 0.65 0.65 0.62 0.58 0.58 0.68 0.77 0.86 1.01 1.09 1.10 1.20 1.36 1.46 1.43 1.35 1.27 1.13 1.09 1.10 1.16 1.20 1.18 1.15 1.16 1.17 1.21 1.12 0.91
1.19 1.22 1.18 1.06 0.94 0.93 0.97 0.91 0.83 0.83 0.85 0.76 0.71 0.75 0.75 0.77 0.85 0.87 0.80 0.74 0.77 0.77 0.79 0.91 1.00 1.08 1.17 1.28 1.35 1.38 1.35 1.27 1.13 0.98 0.95 1.01 1.06 1.08 1.08 1.07 1.07 1.09 1.02 0.81
1.03 1.12 1.11 1.03 0.96 0.88 0.94 0.91 0.87 0.86 0.82 0.74 0.68 0.70 0.76 0.87 0.99 1.03 1.00 1.00 1.02 0.99 0.90 0.87 0.95 0.98 1.08 1.16 1.19 1.25 1.22 1.14 1.03 0.87 0.84 0.90 0.97 1.04 1.03 0.97 0.96 0.95 0.86 0.74
1.08 1.13 1.08 1.00 1.02 1.03 1.03 0.98 0.92 0.92 0.84 0.76 0.78 0.80 0.85 0.91 1.03 1.10 1.09 1.05 1.04 1.07 1.00 0.91 0.87 0.88 0.92 0.98 1.02 1.05 1.05 1.05 1.01 0.84 0.79 0.90 0.99 1.06 1.02 0.92 0.90 0.87 0.78 0.77
1.02 1.03 0.98 0.89 0.87 0.86 0.84 0.82 0.82 0.87 0.91 0.91 1.01 1.11 1.13 1.05 1.05 1.18 1.27 1.15 0.97 0.97 0.96 0.92 0.82 0.82 0.84 0.93 0.97 0.98 0.97 0.97 1.01 0.90 0.82 0.89 0.98 1.02 0.99 0.91 0.86 0.79 0.75 0.78
0.91 0.93 0.93 0.89 0.84 0.77 0.69 0.67 0.73 0.81 0.90 0.98 1.05 1.17 1.26 1.28 1.28 1.25 1.17 1.14 1.04 1.02 0.91 0.81 0.74 0.71 0.72 0.78 0.87 0.92 0.92 0.91 0.95 0.93 0.88 0.92 1.00 1.01 1.00 0.92 0.86 0.80 0.76 0.76
0.87 0.88 0.87 0.83 0.89 0.84 0.76 0.73 0.70 0.75 0.82 0.90 1.01 1.20 1.32 1.32 1.39 1.53 1.35 1.05 0.96 0.99 0.90 0.77 0.71 0.68 0.62 0.58 0.71 0.81 0.84 0.89 0.90 0.88 0.85 0.83 0.83 0.86 0.85 0.78 0.74 0.73 0.75 0.76
0.92 0.86 0.90 0.88 0.85 0.78 0.76 0.76 0.77 0.81 0.79 0.80 0.88 1.08 1.29 1.41 1.36 1.24 1.21 1.10 0.94 0.85 0.80 0.78 0.69 0.65 0.63 0.57 0.63 0.72 0.77 0.80 0.77 0.75 0.74 0.71 0.74 0.77 0.74 0.71 0.69 0.70 0.74 0.75
0.91 0.87 0.86 0.90 0.89 0.86 0.84 0.84 0.89 0.90 0.88 0.88 0.86 0.92 1.02 1.22 1.35 1.18 0.98 0.91 0.87 0.76 0.72 0.72 0.65 0.60 0.55 0.51 0.53 0.60 0.66 0.69 0.67 0.65 0.63 0.67 0.70 0.70 0.64 0.62 0.63 0.66 0.69 0.72
0.91 0.89 0.89 0.89 0.89 0.91 0.91 0.98 1.12 1.10 1.10 1.16 1.08 1.00 0.99 1.03 1.11 1.11 0.98 0.86 0.79 0.73 0.66 0.68 0.66 0.61 0.56 0.56 0.54 0.57 0.63 0.70 0.71 0.68 0.63 0.67 0.66 0.63 0.62 0.63 0.59 0.59 0.62 0.62
0.95 0.89 0.90 0.93 0.92 0.91 0.99 1.11 1.25 1.29 1.34 1.41 1.35 1.17 1.06 0.98 1.00 1.01 0.95 0.88 0.83 0.76 0.72 0.69 0.66 0.63 0.60 0.57 0.52 0.52 0.58 0.66 0.70 0.71 0.70 0.71 0.72 0.71 0.66 0.63 0.57 0.54 0.54 0.50